TimeAKDT,TemperatureF,Dew PointF,Humidity,Sea Level PressureIn,VisibilityMPH,Wind Direction,Wind SpeedMPH,Gust SpeedMPH,PrecipitationIn,Events,Conditions,WindDirDegrees,DateUTC
12:53 AM,46.0,43.0,89,29.16,4.0,East,19.6,-,0.01,Rain,Rain,90,2011-10-21 08:53:00
1:53 AM,45.0,42.1,90,29.16,10.0,East,10.4,-,0.02,,Mostly Cloudy,90,2011-10-21 09:53:00
2:53 AM,45.0,42.1,90,29.16,9.0,East,8.1,-,N/A,,Scattered Clouds,80,2011-10-21 10:53:00
3:53 AM,45.0,43.0,93,29.15,9.0,East,10.4,-,N/A,,Mostly Cloudy,80,2011-10-21 11:53:00
4:00 AM,44.6,42.8,93,29.15,10.0,East,9.2,-,N/A,,Mostly Cloudy,80,2011-10-21 12:00:00
4:27 AM,44.6,42.8,93,29.14,10.0,East,10.4,-,N/A,,Scattered Clouds,80,2011-10-21 12:27:00
4:53 AM,45.0,42.1,90,29.14,10.0,East,10.4,-,N/A,,Scattered Clouds,90,2011-10-21 12:53:00
5:53 AM,44.1,41.0,89,29.14,10.0,East,9.2,-,N/A,,Scattered Clouds,90,2011-10-21 13:53:00
6:53 AM,45.0,42.1,90,29.13,10.0,East,10.4,-,N/A,,Mostly Cloudy,80,2011-10-21 14:53:00
7:53 AM,45.0,42.1,90,29.13,10.0,East,11.5,-,0.00,,Mostly Cloudy,80,2011-10-21 15:53:00
8:04 AM,44.6,42.8,93,29.13,10.0,East,13.8,-,N/A,,Mostly Cloudy,90,2011-10-21 16:04:00
8:53 AM,44.1,41.0,89,29.14,10.0,East,10.4,-,0.00,,Mostly Cloudy,100,2011-10-21 16:53:00
9:53 AM,45.0,42.1,90,29.15,10.0,ESE,8.1,-,0.00,Rain,Light Rain,120,2011-10-21 17:53:00
10:10 AM,44.6,41.0,87,29.15,10.0,SE,5.8,-,0.00,,Mostly Cloudy,140,2011-10-21 18:10:00
10:53 AM,45.0,42.1,90,29.16,10.0,East,5.8,-,0.00,,Mostly Cloudy,80,2011-10-21 18:53:00
11:25 AM,44.6,42.8,93,29.17,10.0,ESE,8.1,-,N/A,,Mostly Cloudy,110,2011-10-21 19:25:00
11:53 AM,45.0,42.1,90,29.18,6.0,East,5.8,-,0.05,Rain,Light Rain,90,2011-10-21 19:53:00
12:53 PM,45.0,41.0,86,29.18,10.0,NE,5.8,-,0.00,,Mostly Cloudy,50,2011-10-21 20:53:00
1:53 PM,46.0,42.1,86,29.18,10.0,NE,6.9,-,0.00,,Mostly Cloudy,40,2011-10-21 21:53:00
2:53 PM,46.9,43.0,86,29.18,8.0,East,6.9,-,0.00,Rain,Light Rain,100,2011-10-21 22:53:00
3:53 PM,48.0,42.1,80,29.19,10.0,East,8.1,-,0.00,,Mostly Cloudy,100,2011-10-21 23:53:00
4:53 PM,46.0,41.0,83,29.19,9.0,ESE,9.2,-,N/A,,Mostly Cloudy,110,2011-10-22 00:53:00
5:53 PM,46.0,39.9,79,29.21,10.0,South,6.9,-,N/A,,Mostly Cloudy,170,2011-10-22 01:53:00
6:53 PM,42.1,39.0,89,29.21,10.0,Calm,Calm,-,0.02,,Overcast,0,2011-10-22 02:53:00
7:50 PM,41.0,39.2,93,29.23,3.0,Calm,Calm,-,0.03,Rain,Rain,0,2011-10-22 03:50:00
7:53 PM,41.0,39.9,96,29.23,4.0,Calm,Calm,-,0.03,Rain,Rain,0,2011-10-22 03:53:00
8:53 PM,39.9,39.0,97,29.24,10.0,West,3.5,-,0.02,,Mostly Cloudy,280,2011-10-22 04:53:00
9:53 PM,37.9,37.0,97,29.26,9.0,West,3.5,-,N/A,,Mostly Cloudy,280,2011-10-22 05:53:00
10:53 PM,37.0,36.0,96,29.27,7.0,West,3.5,-,N/A,,Scattered Clouds,280,2011-10-22 06:53:00
11:53 PM,39.0,37.9,96,29.29,10.0,West,3.5,-,N/A,,Mostly Cloudy,280,2011-10-22 07:53:00